Simultaneous Nadir Overpasses (SNOs) Predictions

Prediction of SNOs between GOES-15 and TERRA Satellite Orbit:

Table of predicted SNOs for the next 14.0 days since TLE Epoch: 3/10/2012
Index Date Time (GOES-15) GOES-15 Lat,Lon TERRA Lat,Lon Distance(km) Time Diff (sec)
1 03/11/2012 19:21:30 -0.04,-135.36 -0.62,-132.71 301.86 80
2 03/12/2012 07:40:14 0.05,-135.34 -0.48,-137.90 290.69 80
3 03/14/2012 07:30:42 0.05,-135.31 0.16,-134.94 42.02 80
4 03/16/2012 07:18:29 0.06,-135.26 0.75,-131.97 374.14 80
5 03/16/2012 19:37:04 -0.06,-135.27 0.36,-137.12 211.90 80
6 03/18/2012 19:27:32 -0.06,-135.22 -0.31,-134.17 120.41 80
7 03/19/2012 07:46:15 0.06,-135.20 -0.84,-139.35 472.38 80
8 03/20/2012 19:15:18 -0.06,-135.18 -0.88,-131.19 452.62 80
9 03/21/2012 07:34:02 0.06,-135.15 -0.20,-136.39 140.18 80
10 03/23/2012 07:24:29 0.06,-135.11 0.44,-133.42 191.69 80
11 03/23/2012 19:43:04 -0.07,-135.10 0.66,-138.58 394.49 80




NCC Satellite Simultaneous Nadir Overpasses (SNOs) Prediction Service
